contact:dominique.lefevre@mio.osupytheas.fr, maurice.libes@osupytheas.fr, didier.mallarino@osupytheas.fr
Project:EMSO http://www.emso-fr.org/EMSO-France
Depth: 2436.0 m
Title:EMSO Ligure Ouest : Data MII capteur AQUADOPP
Date,Latitude,Longitude,X_East,Y_North,Z_Up,Amplitude_X,Amplitude_Y,Amplitude_Z,Batterie,SoundSpeed,Heading,Pitch,Roll,Pressure,TIS,Speed,Direction
, degrees North, degrees East, m.s-1, m.s-1,m.s-1, 1, 1, 1, Volt, m.s-1, degree, degree, degree, dbar, degree_C, m.s-1, degree
2020-08-23T00:04:03,42.805,6.029,0.034,-0.022,-0.009,102.0,105.0,100.0,13.3,1505.3,326.7,-0.7,1.8,2470.503,13.31,0.04,122.9
2020-08-23T00:07:03,42.805,6.029,0.016,-0.003,0.013,103.0,104.0,100.0,13.3,1505.3,325.8,-0.7,1.9,2470.477,13.31,0.016,100.6
2020-08-23T00:10:03,42.805,6.029,0.02,-0.014,-0.007,103.0,105.0,100.0,13.4,1505.3,326.2,-0.8,1.9,2470.469,13.32,0.024,125.0
2020-08-23T00:13:03,42.805,6.029,0.005,-0.029,-0.037,104.0,106.0,101.0,13.4,1505.3,325.0,-0.7,1.8,2470.446,13.32,0.029,170.2
2020-08-23T00:16:03,42.805,6.029,0.006,-0.005,-0.036,102.0,105.0,101.0,13.4,1505.3,325.9,-0.7,1.8,2470.395,13.32,0.007,129.8
2020-08-23T00:19:03,42.805,6.029,0.015,-0.006,-0.007,103.0,105.0,100.0,13.4,1505.3,322.9,-0.7,1.8,2470.474,13.32,0.016,111.8
2020-08-23T00:22:03,42.805,6.029,0.015,-0.027,-0.029,103.0,106.0,101.0,13.4,1505.3,323.1,-0.7,1.8,2470.476,13.32,0.03,150.9
2020-08-23T00:25:03,42.805,6.029,0.004,-0.034,-0.023,105.0,105.0,101.0,13.3,1505.3,324.7,-0.7,1.9,2470.395,13.32,0.034,173.3
2020-08-23T00:28:03,42.805,6.029,0.01,-0.003,-0.014,104.0,105.0,101.0,13.4,1505.3,327.3,-0.7,1.8,2470.453,13.32,0.01,106.7
2020-08-23T00:31:03,42.805,6.029,0.019,-0.025,-0.022,103.0,106.0,101.0,13.4,1505.3,325.8,-0.7,1.9,2470.441,13.32,0.031,142.8
2020-08-23T00:34:03,42.805,6.029,0.032,-0.027,-0.026,104.0,105.0,100.0,13.4,1505.3,323.1,-0.7,1.8,2470.429,13.32,0.041,130.2
2020-08-23T00:37:03,42.805,6.029,0.016,-0.016,-0.005,103.0,105.0,101.0,13.4,1505.3,323.4,-0.7,1.8,2470.443,13.32,0.022,135.0
2020-08-23T00:40:03,42.805,6.029,0.032,-0.031,-0.007,103.0,106.0,100.0,13.4,1505.3,324.3,-0.7,1.8,2470.447,13.32,0.044,134.1
2020-08-23T00:43:03,42.805,6.029,0.011,-0.018,-0.049,104.0,105.0,101.0,13.4,1505.3,325.8,-0.7,1.8,2470.426,13.32,0.021,148.6
2020-08-23T00:46:03,42.805,6.029,0.023,-0.03,-0.005,104.0,105.0,101.0,13.3,1505.3,324.9,-0.7,1.8,2470.4,13.32,0.037,142.5
2020-08-23T00:49:03,42.805,6.029,0.037,-0.037,-0.022,103.0,106.0,101.0,13.4,1505.3,326.5,-0.7,1.8,2470.395,13.32,0.052,135.0
2020-08-23T00:52:03,42.805,6.029,0.045,-0.034,0.006,103.0,106.0,101.0,13.4,1505.3,326.5,-0.7,1.8,2470.384,13.32,0.056,127.1
2020-08-23T00:55:03,42.805,6.029,0.011,-0.029,-0.02,105.0,106.0,102.0,13.4,1505.3,326.0,-0.7,1.8,2470.409,13.32,0.031,159.2
2020-08-23T00:58:03,42.805,6.029,0.02,-0.007,-0.009,104.0,106.0,100.0,13.4,1505.3,324.5,-0.7,1.8,2470.409,13.32,0.021,109.3
2020-08-23T01:04:03,42.805,6.029,0.033,-0.023,-0.016,105.0,107.0,102.0,13.4,1505.2,324.7,-0.7,1.8,2470.453,13.3,0.04,124.9
2020-08-23T01:07:03,42.805,6.029,0.029,-0.014,0.005,103.0,105.0,100.0,13.4,1505.3,328.5,-0.7,1.8,2470.446,13.31,0.032,115.8
2020-08-23T01:10:03,42.805,6.029,0.028,-0.031,-0.023,104.0,106.0,101.0,13.4,1505.3,325.5,-0.7,1.8,2470.45,13.32,0.041,137.9
2020-08-23T01:13:03,42.805,6.029,0.024,-0.008,-0.006,104.0,106.0,101.0,13.3,1505.3,325.0,-0.7,1.8,2470.377,13.32,0.025,108.4
2020-08-23T01:16:03,42.805,6.029,0.058,-0.033,0.003,104.0,105.0,102.0,13.4,1505.3,327.9,-0.7,1.8,2470.401,13.32,0.066,119.6
2020-08-23T01:19:03,42.805,6.029,0.058,-0.047,-0.019,103.0,106.0,101.0,13.4,1505.3,327.9,-0.7,1.8,2470.406,13.32,0.074,129.0
2020-08-23T01:22:03,42.805,6.029,0.036,-0.037,0.013,103.0,105.0,102.0,13.4,1505.3,326.6,-0.7,1.8,2470.35,13.32,0.051,135.8
2020-08-23T01:25:03,42.805,6.029,0.035,-0.034,0.009,104.0,105.0,102.0,13.4,1505.3,325.7,-0.7,1.8,2470.385,13.32,0.048,134.2
2020-08-23T01:28:03,42.805,6.029,0.023,-0.03,0.002,104.0,105.0,102.0,13.4,1505.3,327.8,-0.7,1.8,2470.389,13.32,0.037,142.5
2020-08-23T01:31:03,42.805,6.029,0.035,-0.022,-0.025,104.0,106.0,101.0,13.4,1505.3,326.8,-0.7,1.8,2470.367,13.32,0.041,122.2
2020-08-23T01:34:03,42.805,6.029,0.029,-0.037,-0.008,104.0,107.0,101.0,13.4,1505.3,324.8,-0.7,1.8,2470.369,13.32,0.047,141.9
2020-08-23T01:37:03,42.805,6.029,0.031,-0.042,-0.013,103.0,106.0,101.0,13.3,1505.3,326.5,-0.7,1.9,2470.394,13.32,0.052,143.6
2020-08-23T01:40:03,42.805,6.029,0.021,-0.021,-0.01,104.0,105.0,101.0,13.4,1505.3,327.2,-0.7,1.8,2470.371,13.33,0.029,135.0
2020-08-23T01:43:03,42.805,6.029,0.012,-0.035,-0.053,105.0,105.0,100.0,13.4,1505.3,323.2,-0.7,1.8,2470.389,13.32,0.037,161.1
2020-08-23T01:46:03,42.805,6.029,0.019,-0.017,-0.015,104.0,105.0,102.0,13.4,1505.3,326.3,-0.7,1.8,2470.361,13.32,0.025,131.8
2020-08-23T01:49:03,42.805,6.029,0.009,-0.027,-0.005,105.0,107.0,101.0,13.4,1505.3,327.0,-0.7,1.8,2470.347,13.32,0.028,161.6
2020-08-23T01:52:03,42.805,6.029,0.036,-0.022,0.016,105.0,106.0,100.0,13.4,1505.3,325.5,-0.7,1.9,2470.379,13.32,0.042,121.4
2020-08-23T01:55:03,42.805,6.029,0.033,-0.049,-0.042,103.0,106.0,101.0,13.4,1505.3,326.6,-0.7,1.8,2470.347,13.32,0.059,146.0
2020-08-23T01:58:03,42.805,6.029,0.012,-0.014,-0.014,102.0,106.0,101.0,13.4,1505.3,328.1,-0.7,1.8,2470.405,13.32,0.018,139.4
2020-08-23T02:04:03,42.805,6.029,0.004,-0.01,-0.029,104.0,106.0,102.0,13.3,1505.3,323.6,-0.7,1.8,2470.41,13.31,0.01,158.2
2020-08-23T02:07:03,42.805,6.029,0.016,-0.018,-0.008,103.0,106.0,102.0,13.3,1505.3,324.1,-0.7,1.8,2470.381,13.31,0.024,138.4
2020-08-23T02:10:03,42.805,6.029,0.011,-0.021,0.012,104.0,107.0,101.0,13.4,1505.3,326.3,-0.7,1.8,2470.348,13.32,0.023,152.4
2020-08-23T02:13:03,42.805,6.029,-0.005,-0.026,-0.037,103.0,106.0,101.0,13.4,1505.3,326.5,-0.7,1.8,2470.397,13.32,0.026,190.9
2020-08-23T02:16:03,42.805,6.029,0.03,0.0,-0.004,106.0,106.0,100.0,13.4,1505.3,327.2,-0.7,1.8,2470.395,13.32,0.03,90.0
2020-08-23T02:19:03,42.805,6.029,0.016,-0.015,-0.019,103.0,105.0,102.0,13.4,1505.3,326.4,-0.7,1.8,2470.382,13.32,0.021,133.1
2020-08-23T02:22:03,42.805,6.029,0.029,-0.036,-0.007,105.0,104.0,102.0,13.4,1505.3,326.5,-0.7,1.8,2470.262,13.32,0.046,141.1
2020-08-23T02:25:03,42.805,6.029,0.016,-0.014,0.006,103.0,105.0,101.0,13.4,1505.3,326.9,-0.7,1.8,2470.34,13.32,0.021,131.2
2020-08-23T02:28:03,42.805,6.029,0.029,-0.026,-0.005,105.0,106.0,101.0,13.4,1505.3,323.9,-0.7,1.9,2470.413,13.33,0.038,131.9
2020-08-23T02:31:03,42.805,6.029,0.037,-0.029,-0.011,106.0,104.0,101.0,13.4,1505.3,325.7,-0.7,1.8,2470.331,13.33,0.047,128.1
2020-08-23T02:34:03,42.805,6.029,0.012,-0.03,-0.034,103.0,107.0,100.0,13.3,1505.3,325.2,-0.7,1.8,2470.406,13.33,0.032,158.2
2020-08-23T02:37:03,42.805,6.029,0.051,-0.024,0.023,104.0,105.0,100.0,13.3,1505.3,326.2,-0.7,1.8,2470.327,13.33,0.056,115.2
2020-08-23T02:40:03,42.805,6.029,0.014,-0.03,-0.01,103.0,106.0,101.0,13.4,1505.3,325.1,-0.7,1.9,2470.353,13.33,0.033,155.0
2020-08-23T02:43:03,42.805,6.029,0.024,-0.038,-0.021,102.0,106.0,101.0,13.4,1505.3,325.3,-0.7,1.8,2470.356,13.32,0.044,147.7
2020-08-23T02:46:03,42.805,6.029,0.052,-0.035,0.022,104.0,105.0,102.0,13.4,1505.3,327.3,-0.7,1.8,2470.299,13.32,0.062,123.9
2020-08-23T02:49:03,42.805,6.029,0.055,-0.026,0.015,104.0,105.0,102.0,13.4,1505.3,326.6,-0.7,1.8,2470.362,13.33,0.06,115.3
2020-08-23T02:52:03,42.805,6.029,0.028,-0.03,-0.043,103.0,106.0,101.0,13.3,1505.3,324.2,-0.7,1.9,2470.332,13.32,0.041,137.0
2020-08-23T02:55:03,42.805,6.029,0.034,-0.029,0.013,104.0,104.0,101.0,13.4,1505.3,327.6,-0.7,1.8,2470.279,13.33,0.044,130.5
2020-08-23T02:58:03,42.805,6.029,0.034,-0.04,-0.006,103.0,106.0,101.0,13.3,1505.3,326.7,-0.7,1.8,2470.283,13.33,0.052,139.6
2020-08-23T03:04:03,42.805,6.029,0.03,-0.021,0.013,103.0,106.0,102.0,13.4,1505.3,326.6,-0.7,1.8,2470.337,13.31,0.036,125.0
2020-08-23T03:07:03,42.805,6.029,0.015,-0.039,-0.026,104.0,105.0,102.0,13.3,1505.3,325.3,-0.7,1.9,2470.322,13.31,0.041,159.0
2020-08-23T03:10:03,42.805,6.029,0.026,-0.026,0.0,103.0,105.0,101.0,13.4,1505.3,325.6,-0.7,1.8,2470.339,13.32,0.036,135.0
2020-08-23T03:13:03,42.805,6.029,0.023,-0.035,0.021,105.0,106.0,102.0,13.4,1505.3,328.5,-0.7,1.8,2470.308,13.32,0.041,146.7
2020-08-23T03:16:03,42.805,6.029,0.009,-0.02,0.001,102.0,105.0,101.0,13.4,1505.3,326.2,-0.7,1.8,2470.366,13.32,0.021,155.8
2020-08-23T03:19:03,42.805,6.029,0.028,-0.032,-0.023,104.0,105.0,101.0,13.4,1505.3,324.8,-0.8,1.9,2470.331,13.32,0.042,138.8
2020-08-23T03:22:03,42.805,6.029,0.005,-0.033,0.0,104.0,106.0,102.0,13.4,1505.3,325.7,-0.7,1.8,2470.324,13.32,0.033,171.4
2020-08-23T03:25:03,42.805,6.029,0.024,-0.022,-0.017,104.0,107.0,100.0,13.4,1505.3,325.4,-0.7,1.8,2470.283,13.32,0.032,132.5
2020-08-23T03:28:03,42.805,6.029,0.041,-0.019,-0.008,104.0,106.0,102.0,13.3,1505.3,325.7,-0.7,1.7,2470.327,13.32,0.045,114.9
2020-08-23T03:31:03,42.805,6.029,0.003,-0.032,0.013,105.0,106.0,101.0,13.4,1505.3,324.2,-0.7,1.8,2470.345,13.32,0.032,174.6
2020-08-23T03:34:03,42.805,6.029,0.03,-0.029,-0.035,104.0,106.0,102.0,13.4,1505.3,325.9,-0.7,1.8,2470.262,13.32,0.041,134.0
2020-08-23T03:37:03,42.805,6.029,0.002,-0.012,-0.019,103.0,106.0,101.0,13.3,1505.3,327.2,-0.7,1.8,2470.318,13.32,0.012,170.5
2020-08-23T03:40:03,42.805,6.029,0.023,-0.044,-0.026,106.0,104.0,100.0,13.4,1505.3,327.3,-0.7,1.8,2470.302,13.32,0.049,152.4
2020-08-23T03:43:03,42.805,6.029,0.035,-0.048,0.004,104.0,106.0,101.0,13.3,1505.3,325.1,-0.7,1.9,2470.306,13.33,0.059,143.9
2020-08-23T03:46:03,42.805,6.029,0.013,-0.022,0.005,104.0,106.0,102.0,13.4,1505.3,326.3,-0.7,1.8,2470.274,13.32,0.025,149.4
2020-08-23T03:49:03,42.805,6.029,0.012,-0.027,-0.014,103.0,106.0,103.0,13.3,1505.3,326.1,-0.7,1.8,2470.283,13.33,0.029,156.0
2020-08-23T03:52:03,42.805,6.029,0.03,-0.021,-0.001,105.0,106.0,102.0,13.4,1505.3,326.3,-0.7,1.8,2470.27,13.33,0.036,125.0
2020-08-23T03:55:03,42.805,6.029,0.007,-0.017,-0.013,105.0,105.0,103.0,13.4,1505.3,326.5,-0.7,1.8,2470.275,13.33,0.018,157.6
2020-08-23T03:58:03,42.805,6.029,0.02,-0.024,-0.014,104.0,107.0,101.0,13.4,1505.3,323.8,-0.7,1.8,2470.278,13.33,0.031,140.2
2020-08-23T04:04:03,42.805,6.029,0.032,-0.035,-0.003,104.0,106.0,101.0,13.4,1505.2,324.9,-0.7,1.8,2470.304,13.3,0.047,137.6
2020-08-23T04:07:03,42.805,6.029,0.013,-0.021,-0.027,104.0,106.0,102.0,13.3,1505.3,325.5,-0.7,1.8,2470.258,13.31,0.024,148.2
2020-08-23T04:13:03,42.805,6.029,0.021,-0.024,0.007,104.0,107.0,101.0,13.3,1505.2,323.1,-0.8,1.8,2470.327,13.3,0.031,138.8
2020-08-23T04:16:03,42.805,6.029,0.018,-0.024,-0.008,103.0,105.0,102.0,13.3,1505.3,325.2,-0.7,1.8,2470.278,13.31,0.03,143.1
2020-08-23T04:19:03,42.805,6.029,0.009,-0.026,-0.001,104.0,105.0,101.0,13.4,1505.3,327.3,-0.7,1.8,2470.31,13.32,0.027,160.9
2020-08-23T04:22:03,42.805,6.029,0.037,-0.034,0.01,103.0,106.0,101.0,13.4,1505.3,328.0,-0.7,1.8,2470.266,13.32,0.05,132.6
2020-08-23T04:25:03,42.805,6.029,0.019,-0.042,-0.034,104.0,106.0,101.0,13.4,1505.3,328.4,-0.7,1.8,2470.296,13.32,0.046,155.7
2020-08-23T04:28:03,42.805,6.029,0.022,-0.053,-0.011,104.0,106.0,100.0,13.4,1505.3,328.6,-0.7,1.8,2470.308,13.32,0.057,157.5
2020-08-23T04:31:03,42.805,6.029,0.01,-0.014,0.014,103.0,105.0,101.0,13.3,1505.3,325.5,-0.7,1.8,2470.256,13.32,0.017,144.5
2020-08-23T04:34:03,42.805,6.029,0.019,-0.037,-0.006,103.0,103.0,102.0,13.3,1505.3,326.4,-0.7,1.8,2470.266,13.32,0.041,152.8
2020-08-23T04:37:03,42.805,6.029,0.022,-0.019,0.005,103.0,107.0,100.0,13.4,1505.3,328.5,-0.7,1.9,2470.298,13.32,0.029,130.8
2020-08-23T04:40:03,42.805,6.029,0.015,-0.041,-0.016,100.0,106.0,101.0,13.4,1505.3,323.4,-0.7,1.8,2470.289,13.32,0.043,159.9
2020-08-23T04:43:03,42.805,6.029,0.059,-0.032,0.031,102.0,103.0,100.0,13.3,1505.3,324.3,-0.7,1.8,2470.263,13.32,0.067,118.5
2020-08-23T04:46:03,42.805,6.029,-0.001,-0.031,-0.038,103.0,104.0,100.0,13.3,1505.3,324.0,-0.7,1.8,2470.274,13.32,0.031,181.8
2020-08-23T04:49:03,42.805,6.029,0.013,-0.054,-0.02,101.0,104.0,102.0,13.4,1505.3,325.1,-0.7,1.8,2470.26,13.32,0.055,166.5
2020-08-23T04:52:03,42.805,6.029,0.026,-0.035,0.016,103.0,106.0,101.0,13.3,1505.3,323.2,-0.7,1.9,2470.239,13.32,0.043,143.4
2020-08-23T04:55:03,42.805,6.029,0.027,-0.023,0.0,105.0,105.0,101.0,13.4,1505.3,327.1,-0.7,1.8,2470.266,13.32,0.035,130.4
2020-08-23T04:58:03,42.805,6.029,0.011,-0.027,-0.014,103.0,105.0,101.0,13.4,1505.3,326.6,-0.7,1.9,2470.279,13.32,0.029,157.8
2020-08-23T05:04:03,42.805,6.029,0.038,-0.046,0.0,103.0,105.0,102.0,13.4,1505.3,323.2,-0.8,1.8,2470.332,13.31,0.059,140.4
2020-08-23T05:07:03,42.805,6.029,0.012,-0.032,-0.022,104.0,105.0,100.0,13.4,1505.3,326.2,-0.7,1.8,2470.286,13.31,0.034,159.4
2020-08-23T05:10:03,42.805,6.029,0.022,-0.007,0.011,102.0,105.0,102.0,13.4,1505.3,324.4,-0.7,1.8,2470.263,13.32,0.023,107.6
2020-08-23T05:13:03,42.805,6.029,0.023,-0.034,0.0,103.0,104.0,101.0,13.3,1505.3,326.3,-0.7,1.8,2470.289,13.32,0.041,145.9
2020-08-23T05:16:03,42.805,6.029,0.015,-0.029,0.0,102.0,105.0,101.0,13.4,1505.3,327.8,-0.7,1.9,2470.259,13.32,0.032,152.6
2020-08-23T05:19:03,42.805,6.029,0.03,-0.029,-0.012,105.0,104.0,101.0,13.3,1505.3,327.8,-0.7,1.8,2470.29,13.32,0.041,134.0
2020-08-23T05:22:03,42.805,6.029,0.021,-0.018,-0.018,105.0,105.0,100.0,13.3,1505.3,327.7,-0.7,1.8,2470.325,13.32,0.027,130.6
2020-08-23T05:25:03,42.805,6.029,0.001,-0.041,-0.024,104.0,104.0,102.0,13.3,1505.3,324.7,-0.7,1.8,2470.249,13.32,0.041,178.6
2020-08-23T05:28:03,42.805,6.029,0.021,-0.026,-0.004,105.0,106.0,100.0,13.3,1505.3,325.6,-0.7,1.8,2470.256,13.33,0.033,141.1
2020-08-23T05:31:03,42.805,6.029,0.037,-0.03,-0.021,104.0,105.0,101.0,13.3,1505.3,325.4,-0.7,1.9,2470.263,13.33,0.047,129.0
2020-08-23T05:34:03,42.805,6.029,0.006,-0.01,0.004,105.0,106.0,101.0,13.4,1505.3,326.9,-0.7,1.8,2470.263,13.33,0.011,149.0
2020-08-23T05:37:03,42.805,6.029,0.019,-0.014,-0.026,104.0,104.0,102.0,13.3,1505.3,324.7,-0.7,1.8,2470.218,13.33,0.023,126.4
2020-08-23T05:40:03,42.805,6.029,0.032,-0.033,0.0,104.0,104.0,102.0,13.4,1505.3,323.3,-0.7,1.8,2470.236,13.33,0.045,135.9
2020-08-23T05:43:03,42.805,6.029,0.012,-0.021,-0.011,105.0,105.0,101.0,13.3,1505.3,324.9,-0.7,1.8,2470.244,13.33,0.024,150.3
2020-08-23T05:46:03,42.805,6.029,0.026,-0.014,0.011,106.0,105.0,102.0,13.3,1505.3,323.2,-0.7,1.8,2470.249,13.33,0.029,118.3
2020-08-23T05:49:03,42.805,6.029,0.013,-0.044,-0.009,104.0,105.0,102.0,13.4,1505.3,324.3,-0.7,1.8,2470.273,13.33,0.045,163.5
2020-08-23T05:52:03,42.805,6.029,0.008,-0.037,0.01,104.0,105.0,101.0,13.4,1505.3,325.6,-0.7,1.8,2470.269,13.33,0.037,167.8
2020-08-23T05:55:03,42.805,6.029,0.014,-0.038,0.008,104.0,107.0,102.0,13.4,1505.3,324.8,-0.7,1.8,2470.296,13.33,0.04,159.8
2020-08-23T05:58:03,42.805,6.029,0.025,-0.025,-0.038,105.0,104.0,102.0,13.3,1505.3,324.5,-0.7,1.8,2470.295,13.33,0.035,135.0
2020-08-23T06:04:04,42.805,6.029,0.017,-0.018,-0.021,104.0,107.0,100.0,13.4,1505.3,325.2,-0.7,1.8,2470.356,13.31,0.024,136.6
2020-08-23T06:07:03,42.805,6.029,0.029,-0.011,-0.009,103.0,106.0,102.0,13.3,1505.3,326.8,-0.7,1.8,2470.306,13.31,0.031,110.8
2020-08-23T06:10:03,42.805,6.029,0.039,-0.022,-0.014,104.0,106.0,102.0,13.4,1505.3,327.6,-0.7,1.8,2470.315,13.32,0.044,119.4
2020-08-23T06:13:03,42.805,6.029,0.017,-0.024,-0.015,105.0,106.0,101.0,13.4,1505.3,325.1,-0.7,1.8,2470.283,13.32,0.029,144.7
2020-08-23T06:16:03,42.805,6.029,0.019,-0.033,-0.012,103.0,105.0,102.0,13.3,1505.3,324.4,-0.7,1.8,2470.342,13.32,0.038,150.1
2020-08-23T06:19:03,42.805,6.029,0.021,-0.035,-0.032,104.0,106.0,100.0,13.4,1505.3,325.0,-0.7,1.9,2470.319,13.32,0.04,149.0
2020-08-23T06:22:03,42.805,6.029,0.035,-0.019,0.016,103.0,105.0,101.0,13.4,1505.3,323.8,-0.7,1.8,2470.252,13.33,0.039,118.5
2020-08-23T06:25:03,42.805,6.029,0.003,-0.022,-0.007,103.0,106.0,101.0,13.3,1505.3,326.4,-0.7,1.9,2470.287,13.33,0.022,172.2
2020-08-23T06:28:03,42.805,6.029,0.035,-0.007,0.034,104.0,106.0,101.0,13.4,1505.3,323.7,-0.7,1.8,2470.292,13.33,0.035,101.3
2020-08-23T06:31:03,42.805,6.029,0.008,-0.03,-0.002,105.0,105.0,102.0,13.4,1505.3,327.1,-0.7,1.8,2470.251,13.33,0.031,165.1
2020-08-23T06:34:03,42.805,6.029,0.037,-0.041,-0.009,104.0,105.0,101.0,13.4,1505.3,327.1,-0.7,1.9,2470.331,13.33,0.055,137.9
2020-08-23T06:37:03,42.805,6.029,0.009,-0.023,-0.017,105.0,106.0,101.0,13.4,1505.3,326.5,-0.7,1.8,2470.325,13.33,0.024,158.6
2020-08-23T06:40:03,42.805,6.029,0.02,-0.014,-0.006,103.0,105.0,101.0,13.3,1505.3,326.1,-0.7,1.8,2470.276,13.33,0.024,125.0
2020-08-23T06:43:03,42.805,6.029,0.023,-0.016,0.002,101.0,105.0,102.0,13.4,1505.3,326.5,-0.7,1.8,2470.309,13.33,0.028,124.8
2020-08-23T06:46:03,42.805,6.029,0.018,-0.032,-0.004,104.0,105.0,100.0,13.3,1505.3,327.7,-0.7,1.8,2470.311,13.33,0.036,150.6
2020-08-23T06:49:03,42.805,6.029,0.044,-0.028,0.013,104.0,104.0,100.0,13.4,1505.3,323.2,-0.7,1.8,2470.339,13.33,0.052,122.5
2020-08-23T06:52:03,42.805,6.029,0.018,-0.02,-0.001,103.0,105.0,102.0,13.4,1505.3,324.8,-0.7,1.8,2470.305,13.33,0.026,138.0
2020-08-23T06:55:03,42.805,6.029,0.017,-0.031,0.03,103.0,105.0,100.0,13.3,1505.3,325.6,-0.7,1.8,2470.311,13.33,0.035,151.3
2020-08-23T06:58:03,42.805,6.029,0.0,-0.028,-0.01,103.0,105.0,101.0,13.4,1505.3,326.9,-0.7,1.8,2470.3,13.33,0.028,180.0
2020-08-23T07:04:03,42.805,6.029,0.003,-0.018,-0.025,103.0,105.0,101.0,13.3,1505.3,324.4,-0.7,1.8,2470.368,13.31,0.018,170.5
2020-08-23T07:07:03,42.805,6.029,0.022,-0.033,-0.01,102.0,107.0,101.0,13.4,1505.3,324.0,-0.7,1.9,2470.337,13.31,0.039,146.3
2020-08-23T07:10:03,42.805,6.029,0.049,-0.016,0.018,102.0,105.0,100.0,13.4,1505.3,325.1,-0.7,1.8,2470.326,13.32,0.051,108.1
2020-08-23T07:13:03,42.805,6.029,-0.002,-0.013,-0.025,102.0,107.0,101.0,13.3,1505.3,323.2,-0.7,1.9,2470.334,13.32,0.013,188.7
2020-08-23T07:16:03,42.805,6.029,0.007,-0.007,-0.019,102.0,107.0,101.0,13.4,1505.3,326.1,-0.7,1.8,2470.334,13.32,0.009,135.0
2020-08-23T07:19:03,42.805,6.029,-0.005,-0.035,-0.02,103.0,105.0,101.0,13.4,1505.3,324.2,-0.7,1.8,2470.334,13.33,0.035,188.1
2020-08-23T07:22:03,42.805,6.029,0.036,-0.015,0.018,104.0,107.0,102.0,13.4,1505.3,325.6,-0.7,1.8,2470.339,13.33,0.039,112.6
2020-08-23T07:25:03,42.805,6.029,-0.003,-0.006,0.003,105.0,105.0,102.0,13.3,1505.3,325.0,-0.7,1.8,2470.311,13.33,0.006,206.6
2020-08-23T07:28:03,42.805,6.029,0.004,-0.005,-0.012,102.0,106.0,103.0,13.3,1505.3,326.6,-0.7,1.8,2470.311,13.33,0.006,141.3
2020-08-23T07:31:03,42.805,6.029,0.023,-0.02,0.003,103.0,105.0,101.0,13.3,1505.3,325.7,-0.7,1.8,2470.345,13.33,0.03,131.0
2020-08-23T07:34:03,42.805,6.029,0.04,-0.003,0.04,104.0,106.0,101.0,13.4,1505.3,326.0,-0.7,1.9,2470.312,13.33,0.04,94.3
2020-08-23T07:37:03,42.805,6.029,0.025,-0.021,0.002,104.0,106.0,101.0,13.3,1505.3,322.5,-0.7,1.8,2470.367,13.33,0.032,130.0
2020-08-23T07:40:03,42.805,6.029,0.026,0.009,0.012,103.0,106.0,102.0,13.3,1505.3,323.9,-0.7,1.8,2470.344,13.33,0.027,70.9
2020-08-23T07:43:03,42.805,6.029,0.005,-0.025,-0.016,104.0,106.0,102.0,13.4,1505.3,327.0,-0.7,1.8,2470.298,13.33,0.025,168.7
2020-08-23T07:46:03,42.805,6.029,0.029,-0.031,-0.017,101.0,105.0,101.0,13.3,1505.3,325.6,-0.7,1.8,2470.336,13.33,0.042,136.9
2020-08-23T07:49:03,42.805,6.029,0.046,-0.007,0.016,104.0,105.0,102.0,13.4,1505.3,325.9,-0.7,1.8,2470.355,13.33,0.046,98.7
2020-08-23T07:52:03,42.805,6.029,0.023,-0.004,0.007,103.0,104.0,101.0,13.4,1505.3,323.0,-0.7,1.8,2470.331,13.33,0.023,99.9
2020-08-23T07:55:03,42.805,6.029,0.03,0.001,0.012,103.0,104.0,103.0,13.4,1505.3,324.7,-0.7,1.8,2470.324,13.33,0.03,88.1
2020-08-23T07:58:03,42.805,6.029,-0.009,-0.023,-0.007,104.0,106.0,100.0,13.3,1505.3,327.1,-0.7,1.8,2470.378,13.33,0.024,201.4
2020-08-23T08:04:03,42.805,6.029,0.027,-0.019,0.012,104.0,107.0,101.0,13.4,1505.3,327.2,-0.7,1.8,2470.387,13.31,0.033,125.1
2020-08-23T08:07:03,42.805,6.029,0.012,-0.027,-0.026,104.0,107.0,102.0,13.4,1505.3,324.8,-0.7,1.9,2470.333,13.32,0.029,156.0
2020-08-23T08:10:03,42.805,6.029,0.035,-0.018,-0.016,104.0,107.0,101.0,13.3,1505.3,325.6,-0.7,1.8,2470.399,13.32,0.039,117.2
2020-08-23T08:13:03,42.805,6.029,0.044,-0.029,0.0,103.0,106.0,102.0,13.4,1505.3,324.1,-0.7,1.8,2470.387,13.32,0.052,123.4
2020-08-23T08:16:03,42.805,6.029,0.02,-0.028,-0.019,104.0,106.0,101.0,13.4,1505.3,326.6,-0.7,1.8,2470.407,13.33,0.034,144.5
2020-08-23T08:19:03,42.805,6.029,0.01,-0.016,-0.021,104.0,106.0,102.0,13.4,1505.3,325.3,-0.6,1.8,2470.361,13.33,0.018,148.0
2020-08-23T08:22:03,42.805,6.029,0.042,-0.019,-0.024,102.0,108.0,103.0,13.4,1505.3,324.1,-0.7,1.8,2470.425,13.33,0.046,114.3
2020-08-23T08:25:03,42.805,6.029,0.036,0.0,-0.008,102.0,107.0,101.0,13.4,1505.3,325.5,-0.7,1.8,2470.375,13.33,0.036,90.0
2020-08-23T08:28:03,42.805,6.029,0.015,-0.017,-0.026,103.0,108.0,102.0,13.4,1505.3,324.5,-0.7,1.8,2470.417,13.33,0.022,138.6
2020-08-23T08:31:03,42.805,6.029,0.074,-0.001,0.048,104.0,106.0,101.0,13.4,1505.3,325.1,-0.7,1.8,2470.389,13.33,0.074,90.8
2020-08-23T08:34:03,42.805,6.029,0.033,-0.015,0.038,105.0,107.0,101.0,13.4,1505.3,324.4,-0.7,1.8,2470.39,13.33,0.036,114.4
2020-08-23T08:37:03,42.805,6.029,0.096,-0.029,0.023,103.0,107.0,102.0,13.4,1505.3,327.3,-0.7,1.8,2470.409,13.33,0.1,106.8
2020-08-23T08:40:03,42.805,6.029,0.032,-0.017,0.02,103.0,105.0,101.0,13.4,1505.3,322.9,-0.7,1.8,2470.371,13.33,0.036,118.0
2020-08-23T08:43:03,42.805,6.029,0.009,-0.009,-0.018,103.0,106.0,103.0,13.4,1505.3,327.7,-0.7,1.8,2470.371,13.33,0.012,135.0
2020-08-23T08:46:03,42.805,6.029,0.014,-0.03,-0.034,104.0,107.0,101.0,13.4,1505.3,324.0,-0.7,1.9,2470.382,13.33,0.033,155.0
2020-08-23T08:49:03,42.805,6.029,0.009,-0.031,-0.019,104.0,105.0,102.0,13.3,1505.3,323.6,-0.7,1.8,2470.381,13.33,0.032,163.8
2020-08-23T08:52:03,42.805,6.029,0.054,-0.003,0.056,103.0,105.0,102.0,13.3,1505.3,326.8,-0.7,1.8,2470.421,13.33,0.054,93.2
2020-08-23T08:55:03,42.805,6.029,0.03,-0.05,-0.004,104.0,106.0,102.0,13.3,1505.3,325.0,-0.7,1.8,2470.423,13.33,0.058,149.0
2020-08-23T08:58:03,42.805,6.029,0.048,0.002,-0.007,102.0,106.0,101.0,13.4,1505.3,324.7,-0.7,1.8,2470.435,13.33,0.048,87.6
2020-08-23T09:04:03,42.805,6.029,0.011,-0.013,-0.008,103.0,106.0,101.0,13.4,1505.3,324.4,-0.7,1.8,2470.444,13.31,0.017,139.8
2020-08-23T09:07:03,42.805,6.029,-0.015,-0.013,-0.012,103.0,105.0,101.0,13.3,1505.3,327.7,-0.7,1.9,2470.424,13.31,0.019,229.1
2020-08-23T09:10:03,42.805,6.029,0.008,-0.018,-0.019,104.0,104.0,100.0,13.3,1505.3,328.0,-0.7,1.8,2470.461,13.32,0.019,156.0
2020-08-23T09:13:03,42.805,6.029,0.011,-0.024,-0.023,104.0,105.0,102.0,13.4,1505.3,327.2,-0.7,1.9,2470.434,13.32,0.026,155.4
2020-08-23T09:16:03,42.805,6.029,0.012,-0.021,-0.016,104.0,106.0,102.0,13.4,1505.3,327.6,-0.7,1.8,2470.475,13.32,0.024,150.3
2020-08-23T09:19:03,42.805,6.029,0.033,-0.027,-0.003,104.0,106.0,100.0,13.4,1505.3,327.1,-0.7,1.8,2470.447,13.33,0.042,129.3
2020-08-23T09:25:03,42.805,6.029,0.022,-0.025,0.013,103.0,105.0,101.0,13.4,1505.3,325.2,-0.7,1.8,2470.492,13.31,0.033,138.7
2020-08-23T09:28:03,42.805,6.029,0.01,-0.001,-0.012,105.0,104.0,101.0,13.3,1505.3,323.1,-0.7,1.8,2470.453,13.31,0.01,95.7
2020-08-23T09:31:03,42.805,6.029,0.024,-0.007,-0.005,104.0,107.0,102.0,13.3,1505.3,323.5,-0.7,1.8,2470.487,13.32,0.025,106.3
2020-08-23T09:34:03,42.805,6.029,0.022,0.003,-0.015,103.0,104.0,102.0,13.3,1505.3,323.8,-0.7,1.8,2470.447,13.32,0.022,82.2
2020-08-23T09:37:03,42.805,6.029,0.012,0.004,-0.017,103.0,105.0,101.0,13.3,1505.3,327.2,-0.7,1.8,2470.457,13.32,0.012,71.6
2020-08-23T09:40:03,42.805,6.029,-0.018,-0.018,-0.028,105.0,106.0,101.0,13.3,1505.3,325.5,-0.7,1.9,2470.474,13.32,0.025,225.0
2020-08-23T09:43:03,42.805,6.029,0.016,-0.012,-0.001,104.0,106.0,101.0,13.4,1505.3,324.0,-0.7,1.8,2470.438,13.33,0.02,126.9
2020-08-23T09:46:03,42.805,6.029,0.035,-0.032,0.017,103.0,105.0,100.0,13.4,1505.3,326.2,-0.7,1.8,2470.427,13.33,0.047,132.4
2020-08-23T09:49:03,42.805,6.029,0.034,-0.02,0.023,103.0,104.0,101.0,13.4,1505.3,326.0,-0.7,1.8,2470.451,13.33,0.039,120.5
2020-08-23T09:52:03,42.805,6.029,0.036,0.0,-0.01,103.0,104.0,101.0,13.3,1505.3,323.6,-0.7,1.8,2470.433,13.33,0.036,90.0
2020-08-23T09:55:03,42.805,6.029,0.005,-0.033,-0.058,104.0,105.0,101.0,13.4,1505.3,327.7,-0.7,1.8,2470.42,13.33,0.033,171.4
2020-08-23T09:58:03,42.805,6.029,0.023,0.0,-0.013,102.0,106.0,107.0,13.4,1505.3,327.3,-0.7,1.8,2470.402,13.33,0.023,90.0
2020-08-23T10:04:03,42.805,6.029,0.002,-0.018,0.0,103.0,105.0,101.0,13.4,1505.3,326.9,-0.7,1.8,2470.444,13.31,0.018,173.7